Theta_e
277 276 275 275 275 274 274 273 274 274 273 272 272 273 273 273 273 273 273 273 273 273 273 273 272 273 274 274 273 273 273 273 272 272 272 272 271 270 270 269 268 267 267 269 271 271 271 271 271 270 271 270 270 270 270 275 273 273 273 274 274 274 277
277 277 276 275 275 275 274 274 274 274 273 272 272 272 273 273 273 272 272 272 272 273 273 273 272 272 273 274 273 273 273 273 272 271 271 271 271 271 270 271 269 268 267 267 268 269 271 270 271 270 271 270 270 269 271 270 271 272 272 273 273 274 275
277 277 276 275 275 274 274 274 274 274 273 273 272 272 272 273 272 272 272 271 272 272 273 272 272 272 273 273 273 273 273 273 272 272 271 270 271 270 271 270 270 269 267 267 268 268 268 269 270 269 270 270 270 270 271 270 269 270 271 272 272 273 274
276 276 276 275 275 274 274 274 273 273 273 272 272 272 272 272 272 272 272 272 272 272 272 272 272 272 272 273 272 272 272 272 272 271 271 270 270 270 270 271 270 270 268 268 267 267 268 269 268 269 270 270 270 270 270 270 269 269 269 270 272 272 273
275 275 275 274 274 274 274 273 273 273 272 272 272 272 272 272 272 272 272 272 272 273 272 272 271 272 272 272 272 272 271 272 271 271 271 270 271 270 271 271 270 270 269 268 267 268 268 269 268 269 270 270 268 268 269 268 268 269 269 270 270 271 273
272 273 273 274 274 274 274 273 273 273 272 271 272 272 272 272 272 272 272 272 272 272 272 272 271 272 272 272 271 271 271 271 271 271 270 270 270 270 271 270 270 269 269 268 268 268 268 267 268 268 268 269 269 268 267 266 267 266 267 268 269 270 272
268 269 270 272 273 273 273 273 273 272 271 271 271 271 271 271 271 271 271 271 271 272 272 272 272 272 272 272 272 271 271 271 271 271 270 270 270 270 270 270 269 269 268 268 268 267 268 268 267 267 267 268 269 269 268 267 265 265 266 266 268 268 270
266 267 268 268 269 272 273 273 273 272 271 271 271 270 270 271 271 271 271 271 271 271 271 272 272 272 272 272 272 272 271 271 271 271 270 271 270 269 268 268 268 267 268 267 267 267 266 266 267 267 268 268 268 266 266 268 266 264 266 267 266 268 269
265 265 265 266 267 268 270 272 272 272 272 271 270 270 270 271 271 271 270 270 271 271 271 271 272 272 272 272 273 273 273 273 273 271 270 270 270 269 268 268 267 267 266 266 266 266 265 266 265 266 266 266 264 264 265 267 267 265 265 266 267 268 269
263 264 264 265 266 267 268 270 272 273 275 275 272 271 270 271 271 271 270 270 270 270 271 271 271 271 273 273 273 273 274 274 274 274 272 270 270 269 268 268 267 266 266 266 265 265 265 264 264 265 266 266 267 267 267 266 267 265 266 265 263 267 267
263 263 264 264 265 265 267 268 270 273 275 276 277 274 272 271 270 270 270 270 270 269 270 270 271 270 272 272 273 273 274 274 274 275 275 275 273 272 269 268 267 267 267 266 266 266 265 265 265 266 267 267 267 267 267 267 267 267 264 263 262 261 266
261 262 262 263 265 266 267 268 271 274 275 276 276 276 272 272 271 270 270 270 270 270 270 270 270 270 270 270 270 271 271 272 274 274 275 275 275 275 275 273 269 268 267 267 266 265 265 265 265 265 264 265 265 266 266 267 266 264 264 262 262 264 262
260 260 262 263 263 264 266 266 271 273 274 275 276 276 275 272 271 270 270 269 269 269 269 269 269 269 269 269 271 271 270 270 270 273 274 274 275 275 275 275 275 274 270 268 267 266 266 266 266 264 265 267 266 266 265 264 263 262 263 263 264 265 264
260 261 261 262 263 264 265 267 270 273 274 275 275 276 275 272 271 271 270 269 269 269 269 269 268 268 268 268 269 269 269 269 269 269 270 270 271 272 273 275 275 275 275 273 268 267 266 267 267 266 266 266 268 267 265 264 264 263 264 265 266 266 266
259 259 260 261 262 263 265 266 271 273 274 274 275 276 275 271 271 271 270 269 269 269 269 269 269 268 268 268 268 268 269 268 268 268 268 269 269 270 272 272 272 273 273 273 271 269 268 267 267 268 267 267 268 268 268 267 267 268 269 269 266 264 264
259 259 260 261 261 261 262 264 270 272 274 274 275 275 272 271 271 270 269 269 269 269 269 269 268 268 268 268 268 269 272 271 269 268 267 267 268 268 270 271 274 275 275 274 273 271 270 269 267 271 268 268 268 268 267 267 269 270 270 268 267 266 262
258 259 259 260 261 261 262 264 269 272 273 273 274 273 271 270 270 269 268 268 268 268 268 268 268 268 267 267 267 269 272 273 272 268 267 267 267 267 267 268 271 275 277 277 277 277 276 275 275 275 276 276 276 272 268 268 268 268 269 267 266 266 264
258 259 260 261 261 263 264 265 268 271 272 273 274 273 270 269 269 267 268 268 268 268 268 268 270 269 267 267 267 271 272 273 271 269 268 267 266 266 266 267 269 270 272 277 278 278 277 277 276 276 276 277 277 277 275 269 268 267 267 268 268 265 263
259 259 261 261 262 264 264 264 267 270 272 273 273 272 270 269 269 266 267 266 266 267 267 267 269 270 268 267 268 272 273 273 271 269 269 267 266 265 265 266 267 268 269 271 272 273 274 275 276 275 274 275 276 277 277 273 271 270 269 267 267 266 262
259 259 260 261 262 263 264 264 265 267 271 272 272 273 270 269 268 266 266 266 266 265 266 267 267 269 271 272 272 272 273 273 273 270 269 268 266 265 265 267 267 268 268 270 271 271 272 273 275 275 275 275 275 275 276 275 273 271 271 269 268 267 265
258 259 260 261 263 264 264 265 265 266 271 271 272 272 272 269 268 268 266 266 266 266 265 266 266 267 269 272 272 273 273 273 274 273 270 269 267 267 268 269 267 267 269 269 270 270 270 270 272 274 274 275 274 274 275 276 274 273 272 271 269 267 267
258 259 260 262 263 263 263 265 266 266 268 270 271 271 272 269 268 269 267 266 266 266 266 266 266 266 268 270 272 273 274 274 274 274 271 270 273 273 273 269 268 268 268 269 270 269 269 269 270 271 272 273 274 274 275 276 275 274 273 273 272 270 268
258 258 259 261 262 263 263 264 264 266 266 268 270 270 271 271 270 271 269 267 266 266 266 267 267 268 269 271 272 273 273 274 274 274 272 274 275 274 273 271 269 268 268 268 269 269 268 269 269 270 271 272 272 272 272 272 274 274 274 274 274 273 273
258 258 259 260 261 262 262 263 263 265 266 266 268 269 270 271 271 271 269 268 267 267 267 267 267 267 271 272 272 273 273 273 273 272 274 275 275 274 273 271 270 269 268 268 268 268 269 269 270 270 271 271 272 272 270 270 271 273 274 274 273 273 274
258 258 259 260 260 261 262 262 262 262 264 266 266 269 269 270 270 270 270 268 267 267 267 268 270 271 271 272 272 273 273 272 272 274 274 274 274 274 273 272 270 270 270 269 269 269 270 270 271 272 272 272 273 273 270 270 272 274 275 274 274 273 273
258 259 259 259 260 261 261 262 262 261 262 263 265 265 267 268 268 268 269 270 268 269 269 270 271 271 271 270 270 270 270 270 271 272 273 273 274 273 273 272 271 272 271 270 270 271 271 272 273 273 273 273 273 272 272 273 273 274 274 274 273 272 272
258 258 258 259 260 261 261 261 261 261 261 261 261 262 263 263 263 265 266 267 268 269 268 269 269 269 270 270 270 270 271 271 272 272 272 272 273 273 273 273 273 272 272 272 272 272 273 273 274 274 273 272 272 272 272 273 273 273 274 274 274 273 272
258 258 259 259 260 261 261 261 261 261 261 261 261 261 261 261 262 262 262 263 266 268 268 268 269 269 269 269 269 269 270 270 270 271 272 272 273 273 274 274 275 275 274 274 274 274 274 274 274 273 273 272 271 271 271 272 273 273 273 274 274 272 272
259 260 261 262 262 261 260 260 260 261 264 263 264 263 261 261 261 261 262 264 267 268 268 267 267 266 267 267 267 268 268 269 270 270 272 272 273 273 273 273 273 273 273 273 273 273 273 273 273 273 273 273 271 271 271 272 273 274 273 272 273 272 273
261 263 264 264 264 263 261 261 262 266 268 269 268 269 268 266 266 266 264 265 266 268 267 266 265 266 266 266 267 267 268 269 270 270 271 272 273 273 273 273 273 273 272 272 272 272 272 272 273 273 273 272 272 273 273 274 274 273 274 273 272 272 272
267 268 267 266 264 265 266 267 267 267 269 270 270 270 270 270 270 269 269 268 266 266 266 266 265 266 266 267 267 268 268 269 270 271 271 271 272 272 272 272 271 271 272 271 271 271 271 271 271 271 272 272 273 273 273 273 274 273 273 271 270 271 271
267 267 267 267 267 266 265 265 267 268 269 270 270 270 270 271 271 271 271 270 269 265 266 266 266 266 266 267 267 268 269 269 270 270 270 270 269 269 270 270 270 270 270 270 270 269 269 269 270 270 270 270 271 272 273 273 273 272 272 270 269 271 272
266 267 268 269 269 268 269 268 267 268 269 270 271 271 271 271 271 272 272 271 267 265 265 266 266 266 266 267 267 268 268 269 269 269 269 269 268 267 266 267 267 269 269 268 268 268 267 268 268 269 269 269 269 268 267 269 272 273 272 271 271 271 272
265 266 266 267 268 269 269 270 270 271 271 271 271 272 272 271 270 272 272 270 266 266 265 266 266 267 267 267 267 266 266 266 267 267 267 266 265 263 263 263 265 267 266 265 265 265 264 265 266 267 267 266 266 267 266 266 268 270 271 271 271 271 269
258 262 263 262 264 267 269 269 270 271 272 272 272 272 271 270 265 264 264 265 265 265 265 265 265 265 265 265 265 264 264 264 264 265 264 264 263 262 263 263 264 264 264 264 263 263 262 263 264 264 265 265 265 266 266 267 268 269 269 271 272 271 270
257 259 261 262 263 264 267 268 269 270 270 271 271 270 268 262 262 262 262 262 263 263 263 263 263 263 263 263 263 264 263 263 263 262 262 262 262 262 262 262 263 263 263 262 263 262 262 262 261 262 263 262 264 264 266 267 269 268 268 269 270 271 271
Wind_Speed
11 8 7 8 8 9 9 9 10 9 9 10 12 12 12 13 13 15 14 13 14 13 12 13 13 13 13 12 11 11 10 10 10 8 8 6 6 7 6 7 8 10 11 7 4 4 5 3 3 3 3 3 3 4 4 5 5 5 5 5 5 6 13
12 11 10 9 10 10 10 9 10 10 10 11 11 13 11 12 14 15 15 14 15 14 12 12 13 14 13 11 13 12 12 10 9 9 9 9 8 9 8 8 8 9 8 12 2 5 3 3 3 5 2 3 3 3 3 5 5 4 4 5 5 6 7
15 14 12 11 11 11 10 11 11 11 11 12 12 13 13 13 14 15 15 15 16 15 13 13 14 14 12 10 12 13 12 11 11 9 10 10 8 10 9 8 8 7 9 10 9 3 5 5 4 5 3 3 3 4 4 5 4 5 5 5 5 6 6
15 14 15 14 13 13 12 12 11 11 11 12 12 12 13 13 14 15 15 15 15 14 14 14 14 14 12 12 13 13 11 10 10 10 10 10 9 8 9 8 8 9 8 7 8 4 6 4 4 4 3 3 2 2 3 4 4 4 4 5 6 6 6
15 15 14 12 14 13 12 11 11 12 12 12 11 12 13 12 13 14 15 15 15 14 14 14 15 14 12 13 14 13 12 11 12 10 9 10 9 9 8 7 8 8 7 7 9 6 4 4 4 4 3 3 2 4 4 4 4 5 6 5 5 4 6
15 16 17 15 14 13 13 12 12 13 13 13 13 12 12 12 13 14 15 15 15 14 14 14 15 14 13 13 14 14 12 11 13 11 10 10 9 9 8 9 8 7 8 8 9 8 7 3 5 4 4 3 3 4 5 4 5 4 5 5 6 6 5
18 17 16 18 15 14 15 14 13 13 13 13 13 12 13 13 14 15 14 14 15 14 14 14 14 14 14 14 14 14 13 12 11 11 12 10 9 7 8 9 8 8 9 9 8 6 7 6 4 4 6 2 3 4 4 5 4 4 4 3 4 6 5
18 16 13 18 17 18 14 15 14 14 14 13 12 12 12 13 14 15 15 15 14 14 14 14 14 14 13 14 13 13 12 12 11 10 11 10 9 8 7 7 7 8 8 8 8 8 6 4 6 5 4 2 1 2 3 4 4 4 5 5 3 4 5
18 18 19 15 17 18 18 16 15 12 13 13 14 12 13 14 15 15 15 15 15 14 14 14 13 13 12 14 18 19 15 13 13 11 11 10 9 9 9 8 6 7 7 7 7 7 3 4 5 6 5 5 4 5 5 4 1 3 4 4 4 5 5
16 16 18 19 18 17 18 15 12 17 27 25 16 13 13 14 15 15 15 15 14 14 14 13 12 12 16 18 19 19 19 20 20 19 13 10 9 10 10 10 9 8 7 8 8 8 6 6 7 7 7 7 5 3 2 3 4 3 5 2 4 4 3
16 16 16 18 17 20 15 16 14 31 32 32 34 24 16 14 14 14 15 15 14 14 13 12 12 11 13 14 15 15 20 21 23 24 24 21 17 13 12 10 11 10 9 9 9 7 6 7 8 8 7 7 5 3 4 5 5 5 1 2 3 5 6
20 18 18 17 18 17 15 14 21 30 31 32 33 30 20 14 14 14 14 14 14 13 11 12 11 11 10 10 11 11 12 17 22 24 25 25 24 24 24 19 13 11 10 10 9 8 9 7 9 8 4 6 4 5 4 4 3 3 2 3 3 3 3
21 18 17 17 19 18 18 16 26 30 32 30 32 33 27 15 13 14 14 13 13 13 12 11 10 10 9 9 15 12 11 10 11 17 22 24 27 27 26 25 26 22 13 8 10 9 9 10 8 7 8 6 5 3 4 3 4 4 3 3 3 4 3
20 18 18 18 18 17 17 15 24 33 32 30 31 30 26 16 14 13 14 14 13 12 12 12 11 10 9 9 10 10 11 10 10 10 11 12 12 12 18 24 25 25 26 18 11 10 11 10 6 9 7 5 5 5 6 5 6 3 3 4 5 4 3
17 16 16 18 15 16 16 18 33 33 32 28 28 28 26 15 12 11 13 13 13 13 13 12 12 11 10 9 10 9 11 10 10 10 10 12 13 10 8 10 12 13 11 13 11 11 11 7 7 9 6 5 6 7 7 6 6 5 5 3 1 4 3
14 16 17 18 19 19 18 19 33 34 30 29 29 30 17 11 10 9 11 12 13 12 11 11 11 11 10 10 10 12 21 17 11 11 12 13 12 12 9 7 11 18 18 12 9 9 10 7 7 9 7 8 7 7 5 3 3 2 2 1 3 6 4
17 16 17 17 18 18 18 18 24 27 29 30 31 24 12 8 7 7 10 11 11 11 11 11 11 11 10 11 10 14 20 22 21 13 13 13 13 13 12 11 8 17 24 24 23 21 19 18 19 20 20 18 18 11 6 4 4 6 3 3 5 6 5
14 15 15 17 17 17 18 16 21 31 29 28 29 23 12 7 6 6 9 9 11 9 10 11 18 15 11 11 11 19 23 22 18 13 13 13 14 16 15 14 11 8 10 22 24 24 22 21 20 20 21 21 20 20 12 8 8 5 4 5 5 4 4
14 14 14 16 16 26 24 16 18 28 28 27 25 18 8 6 5 6 8 8 9 8 8 10 15 22 16 12 14 23 23 23 19 13 11 13 13 14 15 14 11 11 10 9 10 11 12 13 16 14 12 12 21 21 16 10 11 6 6 7 5 5 2
15 17 16 17 19 17 14 15 15 17 26 23 22 22 12 4 5 6 8 8 9 9 8 9 9 15 23 24 24 23 24 23 24 15 11 9 11 12 17 11 9 11 10 9 10 9 6 6 6 9 9 10 12 12 12 9 9 7 8 7 7 5 5
15 15 15 17 15 11 13 14 16 15 23 21 21 21 18 4 6 5 8 8 9 8 8 7 9 8 18 24 24 24 25 25 24 22 14 11 10 14 12 8 8 12 19 12 9 10 9 8 7 7 9 10 11 10 10 8 8 9 9 8 7 5 5
15 14 15 15 13 12 13 13 17 12 15 20 21 21 21 9 4 6 7 9 8 8 8 9 9 8 15 23 24 23 24 25 23 25 14 14 22 23 21 12 10 9 9 9 8 8 9 9 9 8 7 6 6 7 8 8 8 9 9 9 8 8 7
15 15 15 15 12 10 11 10 10 16 13 18 19 20 19 18 9 13 9 8 8 8 8 8 8 9 17 21 23 23 24 23 25 21 15 24 24 23 24 18 8 9 10 10 10 9 9 10 10 10 9 8 8 7 6 6 6 8 9 8 8 7 7
14 12 15 14 12 11 10 8 7 10 16 15 20 19 18 17 16 15 5 7 8 8 8 8 8 9 17 19 21 22 22 23 23 16 22 23 23 23 21 12 10 9 10 11 11 10 10 9 9 9 9 9 8 8 7 7 6 8 9 9 7 8 7
11 13 11 12 12 13 10 8 7 7 10 17 18 20 19 18 17 15 13 8 8 9 8 10 15 17 19 20 22 24 23 20 22 26 24 23 22 20 12 11 10 10 9 10 11 11 10 9 9 9 9 9 9 7 4 3 4 5 7 7 7 6 6
13 11 12 13 13 11 10 8 7 7 7 9 11 13 16 18 17 15 15 10 8 12 16 18 19 20 21 20 18 13 10 9 11 19 22 22 21 12 11 10 11 10 9 10 10 9 9 9 8 8 8 6 5 6 6 6 6 6 5 6 6 5 5
14 13 13 13 13 12 10 8 7 7 6 5 6 6 7 8 8 12 12 9 5 12 11 14 14 10 13 12 16 18 16 15 16 14 14 11 11 11 11 11 11 11 9 9 9 8 7 7 7 6 5 6 7 7 6 7 7 6 6 6 6 6 5
13 12 11 12 14 12 9 8 7 7 6 6 6 6 5 5 6 6 5 5 4 2 8 7 10 12 8 8 8 9 8 8 7 8 9 9 8 9 10 12 15 14 10 8 8 8 8 7 7 7 7 6 6 6 5 6 6 6 5 5 6 5 5
15 14 13 13 12 10 8 7 8 8 7 8 10 8 6 6 6 5 5 6 8 3 6 7 6 5 6 6 7 6 7 8 9 9 9 9 9 9 9 9 10 11 9 8 8 8 8 8 8 8 7 7 6 6 5 6 6 6 5 4 5 5 5
15 15 12 12 10 7 8 9 9 12 16 14 13 15 17 14 12 11 8 7 10 8 5 7 6 6 6 6 5 5 5 6 7 8 8 7 9 8 7 7 7 8 7 7 7 7 7 7 8 8 8 7 7 6 6 7 7 5 5 5 5 5 4
31 32 29 21 14 10 17 20 20 19 18 17 15 13 12 14 15 14 12 11 7 8 6 6 8 6 6 6 5 6 6 6 7 7 7 6 6 7 8 7 7 7 8 8 7 7 6 6 6 7 7 8 7 6 6 5 5 6 6 4 3 3 3
30 32 32 34 30 22 9 13 17 19 18 16 14 11 11 11 12 12 12 12 13 6 4 3 4 4 3 4 5 5 5 4 3 6 7 7 6 6 7 8 7 5 7 7 7 7 6 6 5 5 6 6 6 6 6 6 5 6 6 5 4 4 4
32 33 34 32 34 35 28 6 11 13 13 12 12 13 11 10 9 9 10 13 9 5 4 3 4 4 4 5 6 5 4 4 5 6 6 6 7 6 5 6 5 6 6 6 6 7 6 6 6 6 6 5 5 5 4 3 4 4 4 6 5 5 5
32 31 31 31 33 32 32 17 8 7 12 14 16 16 14 5 4 2 14 13 7 6 5 5 5 5 5 4 3 3 4 6 6 5 6 6 6 6 5 5 4 6 6 6 6 6 6 5 6 6 6 6 5 4 3 3 4 3 4 5 6 6 5
17 22 26 23 21 27 32 31 26 26 26 24 19 22 23 19 11 11 8 7 6 3 2 3 4 4 4 4 5 4 5 6 6 5 6 6 6 5 5 5 5 5 5 6 6 6 6 6 5 4 5 5 5 4 3 4 4 5 3 2 5 6 6
13 12 16 26 25 31 29 30 29 27 27 26 25 22 20 12 9 10 8 7 6 6 6 6 6 5 5 5 5 5 5 5 6 5 5 4 5 5 5 5 5 6 6 5 6 6 6 6 5 6 5 4 3 4 5 5 4 4 3 2 0 1 3
Wind_Direction
274 289 277 250 238 235 230 228 230 230 231 232 236 239 240 241 237 238 241 240 239 235 234 233 235 234 232 228 229 232 232 232 226 225 225 216 210 212 199 193 207 226 251 251 219 242 236 223 213 256 200 249 261 283 280 277 277 278 280 280 283 286 290
289 274 269 262 256 250 240 236 239 241 236 235 236 238 238 241 240 239 240 237 240 236 234 233 235 235 231 226 230 230 231 229 225 222 222 220 215 217 214 202 204 228 232 258 190 236 233 239 200 254 177 225 256 267 273 281 282 285 279 284 282 285 289
312 297 285 273 261 251 246 242 243 242 239 239 238 239 240 240 241 240 240 237 238 236 233 235 235 235 230 227 229 230 230 226 225 220 220 220 213 220 216 208 210 212 233 245 251 202 247 227 224 221 227 209 233 253 258 275 281 282 284 281 281 281 280
318 309 296 284 272 261 255 250 246 246 244 243 242 242 244 243 242 242 240 238 237 234 232 233 235 234 228 226 229 229 226 224 222 220 221 218 215 214 215 211 209 215 226 236 256 213 222 214 222 239 230 225 240 250 273 263 267 274 278 278 279 277 279
310 304 302 296 287 277 270 262 256 251 248 245 242 242 244 243 242 241 241 238 236 232 231 232 234 234 227 226 229 228 225 219 218 220 218 219 215 213 213 214 212 217 217 234 242 249 218 222 232 235 220 199 232 272 271 273 271 264 268 273 271 274 278
305 303 299 289 281 277 270 265 257 251 248 246 244 245 244 244 242 241 239 237 235 232 230 232 232 232 227 225 225 227 223 217 218 215 218 218 216 212 210 217 218 217 225 230 242 240 248 220 231 254 243 216 214 249 271 281 276 286 275 274 285 276 269
306 303 301 296 288 276 271 264 258 254 250 248 246 245 245 244 243 242 239 236 234 230 230 230 231 229 226 226 224 225 221 216 217 216 221 217 213 207 210 215 217 217 223 227 236 234 228 236 229 223 258 215 198 227 232 256 288 289 277 261 259 281 282
306 303 298 297 293 286 274 266 258 253 250 248 246 245 244 243 243 242 239 236 232 229 228 228 228 227 226 225 224 223 220 214 217 215 222 219 214 210 206 212 214 216 218 222 223 226 224 217 235 247 242 252 219 295 285 249 246 272 284 288 273 260 273
308 305 300 295 291 289 284 271 262 255 251 248 247 243 244 244 243 240 238 235 233 229 227 227 226 225 224 224 227 225 219 214 212 212 219 216 213 217 214 216 213 211 210 217 218 230 210 221 228 238 248 248 232 225 235 259 222 250 261 271 298 288 276
298 294 293 295 293 289 287 282 276 270 262 256 251 243 244 243 240 237 235 233 231 229 226 223 221 223 222 223 222 222 220 219 218 217 215 211 207 211 212 216 218 214 211 213 218 223 215 221 231 233 230 237 233 213 243 275 263 263 275 319 299 297 280
295 294 296 294 289 287 279 275 268 275 274 270 266 262 254 241 239 233 230 229 227 228 223 221 219 219 216 214 216 218 221 223 225 227 226 220 212 205 206 209 213 218 211 215 221 217 208 220 232 233 225 233 236 217 227 239 249 244 308 316 308 308 310
304 301 298 292 289 288 289 287 290 288 283 276 270 264 259 246 235 228 226 223 222 223 220 218 216 215 211 214 215 217 221 227 232 233 233 234 230 224 217 210 206 211 215 213 215 214 215 211 226 229 208 230 216 232 237 244 239 226 220 274 287 267 275
302 294 291 287 287 283 280 278 284 284 282 277 273 269 265 256 235 224 221 216 215 215 215 213 213 211 209 209 215 218 219 224 234 242 245 246 243 237 232 228 224 219 216 203 215 216 217 212 213 215 226 209 206 191 218 236 249 248 225 215 237 260 266
299 301 301 300 298 295 291 283 288 289 285 278 270 269 265 258 243 221 213 211 207 209 210 208 209 209 208 205 209 214 216 217 226 233 240 252 257 246 234 232 231 229 226 217 209 210 222 218 190 213 219 205 202 198 217 213 236 231 227 239 239 248 260
303 296 293 290 287 289 291 294 293 292 288 283 283 279 274 262 247 220 207 206 204 205 207 204 206 206 206 203 203 207 210 214 220 224 231 238 245 255 245 223 224 229 227 224 208 212 223 212 198 217 208 194 206 211 214 192 211 211 221 232 298 328 301
288 291 294 294 292 290 286 287 291 291 291 293 290 285 278 263 245 212 199 199 201 200 201 200 201 202 203 199 200 202 217 219 216 221 227 230 237 244 249 251 227 222 228 227 218 205 211 204 203 212 201 200 202 218 215 210 243 250 228 309 301 278 318
295 294 290 289 289 288 286 283 285 295 296 291 287 284 276 257 238 202 191 193 192 196 195 198 198 199 197 199 198 202 215 225 227 216 220 224 229 234 240 243 249 241 232 228 230 225 214 212 218 229 229 224 221 212 188 184 209 233 192 228 264 279 296
290 287 286 286 285 286 288 291 299 299 292 288 285 282 274 250 225 178 187 186 188 188 196 198 199 195 196 197 201 210 217 225 233 232 213 211 218 223 228 235 234 243 251 238 231 230 228 225 224 227 229 231 230 231 197 174 213 211 156 223 233 254 259
290 291 290 290 285 291 290 287 296 297 292 289 287 285 282 255 197 156 174 175 185 189 192 199 206 205 198 197 204 214 220 227 229 231 219 206 208 217 222 225 217 226 233 236 240 238 232 226 225 223 220 224 232 234 223 190 210 176 178 210 217 226 290
295 296 293 293 292 284 284 295 293 289 289 288 288 288 285 217 213 168 170 174 181 190 199 193 194 208 211 210 212 216 223 229 229 225 225 204 205 208 223 213 209 218 227 231 223 235 244 248 225 217 214 214 225 229 234 209 199 182 192 191 208 197 184
294 296 295 294 287 288 298 297 292 285 286 289 290 288 287 244 216 174 173 176 186 192 182 172 191 193 212 218 219 219 224 229 232 229 221 216 208 213 216 195 201 221 223 227 219 219 232 243 249 232 219 220 216 219 221 220 184 193 193 193 194 187 197
297 297 298 297 295 296 297 294 291 287 284 287 291 290 287 284 188 193 164 187 186 186 188 188 189 192 208 217 224 228 227 228 230 232 227 218 223 224 221 208 196 201 211 221 208 203 208 222 229 235 237 225 214 204 213 211 193 190 195 200 197 187 194
299 301 300 299 294 296 294 285 283 283 283 286 286 287 289 286 273 214 200 186 184 184 185 182 186 193 203 212 222 227 231 233 233 231 229 229 227 224 220 215 193 191 203 210 210 206 207 212 214 220 223 229 227 224 208 206 184 191 193 200 201 204 199
300 299 301 298 301 300 294 280 270 274 280 286 285 285 286 288 288 280 226 187 193 196 190 183 185 186 199 212 221 229 234 240 244 242 233 230 228 221 217 203 198 195 195 203 205 205 208 207 207 207 212 214 216 216 208 202 193 190 195 195 199 201 215
298 298 294 304 305 300 293 283 266 260 269 273 279 284 284 284 283 285 277 209 195 189 194 193 201 206 216 226 234 238 241 242 241 241 240 233 227 222 206 196 192 202 188 196 198 201 202 203 203 201 202 204 205 202 168 167 185 190 190 193 191 196 208
303 302 307 302 294 291 288 284 271 259 259 262 269 276 282 285 287 285 283 272 200 194 194 205 210 217 225 232 235 238 240 235 234 240 242 239 228 219 206 187 193 202 191 191 198 198 198 197 194 196 199 178 161 165 188 191 194 192 178 175 180 189 211
308 303 299 293 290 290 287 279 274 267 252 245 256 255 267 283 289 291 297 296 231 204 204 206 211 219 229 230 231 232 236 239 234 232 235 236 232 224 210 195 191 200 199 194 193 195 195 192 191 185 155 161 171 182 188 188 195 196 194 167 167 184 190
301 296 288 286 287 287 284 275 277 265 254 247 239 247 247 254 265 265 269 273 283 191 189 195 210 220 228 230 230 229 229 236 240 236 225 220 215 217 215 207 202 198 202 200 196 192 193 184 176 177 181 165 170 185 181 179 187 190 191 171 167 186 194
301 297 289 283 285 282 275 278 269 259 256 246 241 238 231 228 242 244 249 247 250 234 169 182 199 204 216 226 231 235 231 229 227 227 223 214 201 206 205 209 208 206 196 194 191 190 182 181 173 177 171 173 174 179 175 171 180 188 182 174 175 190 192
313 314 319 321 310 256 253 257 254 266 282 284 270 252 236 227 227 231 223 231 238 234 191 185 190 201 210 218 224 233 241 243 233 216 207 198 196 192 192 187 182 186 178 166 165 162 172 175 172 167 167 166 176 169 166 170 176 175 176 171 176 192 187
335 338 341 342 332 295 256 256 264 270 275 283 288 279 262 239 232 230 223 211 210 225 213 180 187 202 205 216 226 235 240 243 220 188 170 160 163 176 178 165 148 152 145 140 134 130 124 128 141 150 156 157 159 157 156 168 171 160 163 163 167 188 187
343 345 347 349 346 341 306 255 261 264 271 286 293 284 273 262 241 231 218 202 196 208 210 178 174 183 194 201 223 233 246 237 164 134 132 129 124 126 130 135 131 132 124 127 126 123 124 119 115 110 113 121 134 142 162 174 174 166 163 163 171 193 201
350 351 350 348 344 340 344 297 242 252 273 278 279 275 275 276 262 234 198 178 180 198 184 182 188 198 213 220 231 230 207 163 110 106 111 116 117 108 95 103 120 111 104 109 120 121 125 128 125 129 128 134 134 132 138 153 160 170 173 166 174 196 199
347 349 348 345 344 344 356 10 350 317 272 273 269 267 277 341 19 234 178 161 165 173 195 196 204 203 193 180 138 119 119 95 84 90 97 92 87 98 102 103 107 102 107 106 108 114 119 115 122 126 132 138 142 146 151 173 192 177 188 190 185 188 192
334 340 345 345 341 347 1 12 30 43 45 47 67 83 78 62 46 48 62 70 47 64 75 123 120 103 96 97 94 76 83 94 91 88 92 104 107 96 99 94 93 107 113 115 108 110 117 124 123 119 127 139 146 146 160 181 195 189 191 206 195 190 187
335 330 337 345 351 360 5 9 13 28 38 39 42 49 61 67 51 50 51 58 47 49 51 57 55 66 62 72 78 85 80 86 90 91 92 94 114 122 118 116 114 115 112 109 113 120 118 108 107 123 119 112 129 171 182 184 194 175 162 163 30 351 207